Weather in Lug

Russia / Komi Republic     62°47′15″N   50°37′00″E
temp.,
°C
wind,
m/s
gust,
m/s
humid.,
%
clouds,
%
prec.,
mm/h
press.,
hPa
HPBL,
m
8 august, mon
mon800:00+18ssw296963 0.0 1015195
03:00+16w289587 0.1 1016215
06:00+18wnw35805 0.0 1017410
09:00+21wnw35476 0.0 10181162
12:00+23wnw454054 0.0 10191704
15:00+23wnw34347 0.0 10201928
18:00+20nw3645100 0.0 1020738
21:00+15wnw236310 0.0 102152
9 august, tue
tue900:00+12nnw257030 0.0 102393
03:00+11nnw2371100 0.0 102346
06:00+14n2362100 0.0 1024154
09:00+19nne2346100 0.0 1024852
12:00+22n2234100 0.0 10231912
15:00+22n2234100 0.0 10232060
18:00+20n124723 0.0 102363
21:00+14nne226398 0.0 102334
10 august, wed
wed1000:00+13nne246397 0.0 102382
03:00+12nne2564100 0.0 1022104
06:00+13nne2562100 0.0 1022165
09:00+14nne2367100 0.1 1021188
12:00+12nne3989100 1.1 1021389
15:00+12nne31095100 3.1 1020533
18:00+11nne41294100 2.1 1019481
21:00+11nne3129496 2.1 1018502
11 august, thu
thu1100:00+11nne31092100 0.0 1017387
03:00+11n3991100 0.0 1017334
06:00+12nnw3884100 0.0 1017402
09:00+17nw365946 0.0 1016758
12:00+21nnw473796 0.0 10142587
15:00+19w374846 0.0 1014797
18:00+19wsw2653100 0.0 1013251
21:00+16w31063100 0.0 1012671
12 august, fri
fri1200:00+14sw3889100 0.4 1011307
03:00+14wsw41187100 0.4 1010522
06:00+15wsw41172100 0.1 1009717
09:00+13w41195100 1.9 1009688
12:00+18w587035 0.1 10091166
15:00+22w694497 1.1 10082345
18:00+18wnw512575 0.1 10091849
21:00+14nw5127011 0.3 10121080